Skip Page Navigation
NASA JPL Caltech
NASA Logo - Jet Propulsion Laboratory + View the NASA Portal
+ Center for Near-Earth Object Studies
JPL Home Earth Solar System Stars & Galaxies Technology
JPL Solar System Dynamics
BODIES ORBITS EPHEMERIDES TOOLS PHYSICAL DATA DISCOVERY FAQ SITE MAP
JPL Small-Body Database Browser
Search: [ help ]  
173527 (2000 VO60)
Classification: Main-belt Asteroid          SPK-ID: 2173527
Ephemeris | Orbit Diagram | Orbital Elements | Mission Design | Physical Parameters | Discovery Circumstances ]

[ show orbit diagram ]
Orbital Elements at Epoch 2459000.5 (2020-May-31.0) TDB
Reference: JPL 14 (heliocentric ecliptic J2000)
 Element Value Uncertainty (1-sigma)   Units 
e .181198966104951 4.9403e-08  
a 2.23351505718641 1.2271e-08 au
q 1.828804438044392 1.113e-07 au
i 3.699822181761278 4.8987e-06 deg
node 255.4189410341022 8.4383e-05 deg
peri 115.1533582724794 8.5907e-05 deg
M 343.1123439095572 2.1605e-05 deg
tp 2459057.693757439299
(2020-Jul-27.19375744)
7.3536e-05 TDB
period 1219.219089249446
3.34
1.0048e-05
2.751e-08
d
yr
n .2952709674367195 2.4334e-09 deg/d
Q 2.638225676328428 1.4495e-08 au
  Orbit Determination Parameters
   # obs. used (total)      373  
   data-arc span      6794 days (18.60 yr)  
   first obs. used      2000-11-01  
   last obs. used      2019-06-09  
   planetary ephem.      DE431  
   SB-pert. ephem.      SB431-N16  
   condition code      0  
   norm. resid. RMS      .56569  
   source      ORB  
   producer      Otto Matic  
   solution date      2020-Feb-24 17:05:34  

Additional Information
 Earth MOID = .832436 au 
 Jupiter MOID = 2.84136 au 
 T_jup = 3.616 
[ show covariance matrix ]

Ephemeris | Orbit Diagram | Orbital Elements | Mission Design | Physical Parameters | Discovery Circumstances ]

Physical Parameter Table
Parameter Symbol Value Units Sigma Reference Notes
absolute magnitude H 16.5   n/a MPO436861  

173527 (2000 VO60)          Discovered 2000-Nov-01 by Yeung, W. K. Y. at Desert Beaver
Reference: 20080122/Numbers.arcLast Updated: 2008-01-28
Ephemeris | Orbit Diagram | Orbital Elements | Mission Design | Physical Parameters | Discovery Circumstances ]
ABOUT SSD CREDITS/AWARDS PRIVACY/COPYRIGHT GLOSSARY LINKS
FirstGov 2020-Jul-04 19:19 UT
(server date/time)  
NASA Home Page
Site Manager:   Ryan S. Park
Webmaster  Alan B. Chamberlin